This demonstration page uses our WeatherBlox Daily Observations layout. Learn more.

Hourly Observations for February 13, 2019

Temp ( °F °C ) Dew Point ( °F °C ) Humidity (%) Winds ( mph kmh ) Pressure ( in mb ) Visibility ( mi km ) Precip ( " mm )
12:15 am 00:15 Cloudy with Mist and Fog 34 1 34 1 100 100 Calm 29.71 1006 2.5 4.02336 0 0
12:35 am 00:35 Cloudy with Mist and Fog 34 1 34 1 100 100 Calm 29.68 1005 4 6.437376 0 0
12:55 am 00:55 Cloudy with Mist and Fog 34 1 34 1 100 100 Calm 29.71 1006 3 4.828032 0 0
1:15 am 01:15 Cloudy with Mist and Fog 34 1 34 1 100 100 Calm 29.71 1006 3 4.828032 0 0
1:35 am 01:35 Cloudy with Mist and Fog 34 1 34 1 100 100 NW 7 11 29.71 1006 1 1.609344 0 0
1:55 am 01:55 Cloudy 34 1 34 1 100 100 W 3 6 29.71 1006 1.5 2.414016 0 0
2:15 am 02:15 Cloudy with Mist and Fog 34 1 34 1 100 100 NW 6 9 29.74 1007 4 6.437376 0 0
2:35 am 02:35 Cloudy with Mist and Fog 34 1 34 1 100 100 Calm 29.74 1007 5 8.04672 0 0
2:55 am 02:55 Cloudy 34 1 34 1 100 100 SSW 3 6 29.74 1007 7 11.265408 0 0
3:15 am 03:15 Cloudy with Mist and Fog 34 1 34 1 100 100 W 5 7 29.74 1007 5 8.04672 0 0
3:35 am 03:35 Mostly Cloudy 34 1 34 1 100 100 SW 3 6 29.74 1007 10 16.09344 0 0
3:55 am 03:55 Cloudy 34 1 34 1 100 100 W 5 7 29.74 1007 10 16.09344 0 0
4:15 am 04:15 Partly Cloudy 34 1 34 1 100 100 WSW 5 7 29.77 1008 10 16.09344 0 0
4:35 am 04:35 Clear 34 1 34 1 100 100 W 5 7 29.77 1008 10 16.09344 0 0
4:55 am 04:55 Clear 34 1 34 1 100 100 W 5 7 29.77 1008 10 16.09344 0 0
5:15 am 05:15 Clear 36 2 36 2 100 100 WNW 20 31 29.77 1008 10 16.09344 0 0
5:35 am 05:35 Clear 36 2 32 0 87 87 NW 10 17 29.8 1009 10 16.09344 0 0
5:55 am 05:55 Clear 36 2 30 -1 81 81 NW 8 13 29.8 1009 10 16.09344 0 0
6:15 am 06:15 Clear 34 1 30 -1 87 87 WNW 10 17 29.8 1009 10 16.09344 0 0
6:35 am 06:35 Clear 34 1 28 -2 81 81 W 6 9 29.8 1009 10 16.09344 0 0
6:55 am 06:55 Clear 34 1 28 -2 81 81 W 3 6 29.8 1009 10 16.09344 0 0
7:15 am 07:15 Sunny 34 1 28 -2 81 81 Calm 29.8 1009 10 16.09344 0 0
7:35 am 07:35 Partly Cloudy 34 1 28 -2 81 81 Calm 29.83 1010 10 16.09344 0 0
7:55 am 07:55 Mostly Cloudy 34 1 28 -2 81 81 Calm 29.83 1010 10 16.09344 0 0
8:15 am 08:15 Cloudy 36 2 28 -2 75 75 WNW 6 9 29.83 1010 10 16.09344 0 0
8:35 am 08:35 Cloudy 36 2 30 -1 81 81 WNW 7 11 29.83 1010 10 16.09344 0 0
8:55 am 08:55 Mostly Cloudy 37 3 28 -2 70 70 W 9 15 29.83 1010 10 16.09344 0 0
9:15 am 09:15 Sunny 39 4 28 -2 65 65 WNW 18 30 29.83 1010 10 16.09344 0 0
9:35 am 09:35 Sunny 41 5 28 -2 61 61 WNW 16 26 29.83 1010 10 16.09344 0 0
9:55 am 09:55 Partly Cloudy 41 5 30 -1 66 66 W 12 19 29.83 1010 10 16.09344 0 0
10:15 am 10:15 Mostly Cloudy 41 5 30 -1 66 66 W 8 13 29.83 1010 10 16.09344 0 0
10:35 am 10:35 Mostly Cloudy 41 5 30 -1 66 66 W 10 17 29.83 1010 10 16.09344 0 0
10:55 am 10:55 Cloudy 43 6 30 -1 61 61 W 12 19 29.85 1011 10 16.09344 0 0
11:15 am 11:15 Cloudy 43 6 30 -1 61 61 W 10 17 29.83 1010 10 16.09344 0 0
11:35 am 11:35 Cloudy 43 6 30 -1 61 61 W 12 19 29.83 1010 10 16.09344 0 0
11:55 am 11:55 Cloudy 43 6 28 -2 57 57 W 13 20 29.85 1011 10 16.09344 0 0
12:15 pm 12:15 Cloudy 43 6 28 -2 57 57 W 8 13 29.85 1011 10 16.09344 0 0
12:35 pm 12:35 Cloudy 43 6 30 -1 61 61 NW 9 15 29.83 1010 10 16.09344 0 0
12:55 pm 12:55 Cloudy 43 6 28 -2 57 57 W 14 22 29.83 1010 10 16.09344 0 0
1:15 pm 13:15 Cloudy 45 7 28 -2 53 53 WNW 16 26 29.83 1010 10 16.09344 0 0
1:35 pm 13:35 Cloudy 45 7 28 -2 53 53 WNW 18 30 29.83 1010 10 16.09344 0 0
1:55 pm 13:55 Cloudy 45 7 28 -2 53 53 WNW 18 30 29.83 1010 10 16.09344 0 0
2:15 pm 14:15 Cloudy 45 7 28 -2 53 53 NW 18 30 29.83 1010 10 16.09344 0 0
2:35 pm 14:35 Cloudy 45 7 28 -2 53 53 W 16 26 29.85 1011 10 16.09344 0 0
2:55 pm 14:55 Mostly Cloudy 45 7 28 -2 53 53 WNW 20 31 29.85 1011 10 16.09344 0 0
3:15 pm 15:15 Partly Cloudy 45 7 28 -2 53 53 WNW 17 28 29.85 1011 10 16.09344 0 0
3:35 pm 15:35 Partly Cloudy 45 7 28 -2 53 53 WNW 16 26 29.88 1012 10 16.09344 0 0
3:55 pm 15:55 Partly Cloudy 43 6 27 -3 53 53 WNW 18 30 29.88 1012 10 16.09344 0 0
4:15 pm 16:15 Sunny 43 6 27 -3 53 53 NW 16 26 29.88 1012 10 16.09344 0 0
4:35 pm 16:35 Sunny 43 6 27 -3 53 53 WNW 15 24 29.88 1012 10 16.09344 0 0
4:55 pm 16:55 Sunny 43 6 27 -3 53 53 WNW 12 19 29.88 1012 10 16.09344 0 0
5:15 pm 17:15 Partly Cloudy 43 6 27 -3 53 53 WNW 13 20 29.88 1012 10 16.09344 0 0
5:35 pm 17:35 Sunny 41 5 27 -3 57 57 W 13 20 29.91 1013 10 16.09344 0 0
5:55 pm 17:55 Clear 39 4 27 -3 61 61 WNW 8 13 29.91 1013 10 16.09344 0 0
6:15 pm 18:15 Clear 39 4 27 -3 61 61 NW 7 11 29.91 1013 10 16.09344 0 0
6:35 pm 18:35 Clear 37 3 27 -3 65 65 NW 10 17 29.94 1014 10 16.09344 0 0
6:55 pm 18:55 Clear 37 3 27 -3 65 65 NW 14 22 29.94 1014 10 16.09344 0 0
7:15 pm 19:15 Clear 37 3 25 -4 60 60 NW 16 26 29.94 1014 10 16.09344 0 0
7:35 pm 19:35 Clear 37 3 25 -4 60 60 NW 16 26 29.97 1015 10 16.09344 0 0
7:55 pm 19:55 Clear 36 2 27 -3 70 70 NW 8 13 29.97 1015 10 16.09344 0 0
8:15 pm 20:15 Clear 36 2 25 -4 65 65 NW 5 7 29.97 1015 10 16.09344 0 0
8:35 pm 20:35 Clear 36 2 25 -4 65 65 Calm 29.97 1015 10 16.09344 0 0
8:55 pm 20:55 Clear 36 2 25 -4 65 65 NNW 3 6 29.97 1015 10 16.09344 0 0
9:15 pm 21:15 Clear 36 2 25 -4 65 65 NW 6 9 29.97 1015 10 16.09344 0 0
9:35 pm 21:35 Clear 36 2 25 -4 65 65 WNW 9 15 29.97 1015 10 16.09344 0 0
9:55 pm 21:55 Clear 36 2 25 -4 65 65 W 7 11 30 1016 10 16.09344 0 0
10:15 pm 22:15 Clear 36 2 25 -4 65 65 WNW 9 15 30 1016 10 16.09344 0 0
10:35 pm 22:35 Clear 37 3 25 -4 60 60 WNW 16 26 30 1016 10 16.09344 0 0
10:55 pm 22:55 Clear 37 3 25 -4 60 60 WNW 13 20 30 1016 10 16.09344 0 0
11:15 pm 23:15 Clear 37 3 23 -5 56 56 W 12 19 30 1016 10 16.09344 0 0
11:35 pm 23:35 Clear 37 3 23 -5 56 56 W 9 15 30 1016 10 16.09344 0 0
11:55 pm 23:55 Clear 37 3 25 -4 60 60 W 9 15 30 1016 10 16.09344 0 0

Powered by AerisWeather